When you browse on this site, cookies collect data to enhance your experience and personalize the content and advertising you see.
Visit our Privacy Policy to learn more. By continuing to use the site, you agree to this use of cookies and data.
  • In Romania
  • List of Countries
  • For 7 days
  • Water Temperature
  • Satellite Maps
  • Weather Map
  • Weather Widgets
  • user-avatar
    Login

    Hourly Weather Tehran

    Today, 16 January, Wednesday

    Time Temperature Precipitation Wind Pressure Humidity
    00:00 +7°C° 0 mm 2 mps 663 mmHg 28%
    01:00 +6°C° 0 mm 2 mps 663 mmHg 28%
    02:00 +6°C° 0 mm 2 mps 663 mmHg 28%
    03:00 +6°C° 0 mm 2 mps 662 mmHg 26%
    04:00 +6°C° 0 mm 2 mps 662 mmHg 25%
    05:00 +6°C° 0 mm 2 mps 662 mmHg 25%
    06:00 +6°C° 0 mm 2 mps 662 mmHg 24%
    07:00 +7°C° 0 mm 2 mps 662 mmHg 25%
    08:00 +8°C° 0 mm 2 mps 663 mmHg 26%
    09:00 +10°C° 0 mm 2 mps 663 mmHg 25%
    10:00 +10°C° 0 mm 2 mps 663 mmHg 28%
    11:00 +12°C° 0 mm 1 mps 662 mmHg 31%
    12:00 +13°C° 0 mm 1 mps 662 mmHg 34%
    13:00 +13°C° 0 mm 1 mps 662 mmHg 34%
    14:00 +13°C° 0 mm 1 mps 662 mmHg 35%
    15:00 +14°C° 0 mm 2 mps 661 mmHg 35%
    16:00 +13°C° 0 mm 2 mps 661 mmHg 36%
    17:00 +11°C° 0 mm 3 mps 660 mmHg 37%
    18:00 +11°C° 0 mm 3 mps 660 mmHg 37%
    19:00 +11°C° 0 mm 3 mps 660 mmHg 41%
    20:00 +10°C° 0 mm 3 mps 660 mmHg 45%
    21:00 +10°C° 0 mm 2 mps 659 mmHg 48%
    22:00 +10°C° 0.2 mm 2 mps 659 mmHg 52%
    23:00 +10°C° 0.2 mm 3 mps 659 mmHg 55%

    Tomorrow, 17 January, Thursday

    Time Temperature Precipitation Wind Pressure Humidity
    00:00 +10°C° 0.2 mm 3 mps 658 mmHg 58%
    01:00 +10°C° 0.1 mm 3 mps 658 mmHg 58%
    02:00 +10°C° 0.1 mm 2 mps 657 mmHg 59%
    03:00 +9°C° 0.1 mm 2 mps 657 mmHg 59%
    04:00 +9°C° 0 mm 2 mps 657 mmHg 60%
    05:00 +9°C° 0 mm 2 mps 656 mmHg 61%
    06:00 +9°C° 0 mm 2 mps 656 mmHg 62%
    07:00 +10°C° 0 mm 3 mps 656 mmHg 60%
    08:00 +10°C° 0 mm 3 mps 656 mmHg 57%
    09:00 +11°C° 0 mm 4 mps 656 mmHg 55%
    10:00 +11°C° 0.5 mm 4 mps 656 mmHg 58%
    11:00 +10°C° 0.5 mm 3 mps 655 mmHg 61%
    12:00 +10°C° 0.5 mm 3 mps 655 mmHg 64%
    13:00 +9°C° 1.1 mm 3 mps 654 mmHg 65%
    14:00 +9°C° 1.1 mm 3 mps 654 mmHg 66%
    15:00 +9°C° 1.1 mm 3 mps 653 mmHg 67%
    16:00 +9°C° 3.1 mm 3 mps 654 mmHg 66%
    17:00 +7°C° 3.1 mm 4 mps 654 mmHg 65%
    18:00 +6°C° 3.1 mm 4 mps 655 mmHg 65%
    19:00 +6°C° 0.2 mm 5 mps 656 mmHg 66%
    20:00 +4°C° 0.2 mm 6 mps 656 mmHg 66%
    21:00 +4°C° 0.2 mm 6 mps 657 mmHg 67%
    22:00 +3°C° 0.1 mm 6 mps 658 mmHg 65%
    23:00 +3°C° 0.1 mm 6 mps 659 mmHg 62%

    Day after tomorrow, 18 January, Friday

    Time Temperature Precipitation Wind Pressure Humidity
    00:00 +3°C° 0.1 mm 5 mps 659 mmHg 59%
    01:00 +2°C° 0 mm 5 mps 660 mmHg 57%
    02:00 +2°C° 0 mm 5 mps 660 mmHg 55%
    03:00 +3°C° 0 mm 4 mps 661 mmHg 53%
    04:00 +1°C° 0 mm 4 mps 661 mmHg 53%
    05:00 +1°C° 0 mm 4 mps 661 mmHg 52%
    06:00 +1°C° 0 mm 4 mps 662 mmHg 52%
    07:00 +1°C° 0 mm 4 mps 662 mmHg 50%
    08:00 +1°C° 0 mm 4 mps 663 mmHg 48%
    09:00 +3°C° 0 mm 4 mps 663 mmHg 46%
    10:00 +3°C° 0 mm 4 mps 663 mmHg 45%
    11:00 +4°C° 0 mm 4 mps 663 mmHg 44%
    12:00 +4°C° 0 mm 4 mps 663 mmHg 42%
    13:00 +4°C° 0 mm 4 mps 664 mmHg 41%
    14:00 +4°C° 0 mm 4 mps 664 mmHg 39%
    15:00 +4°C° 0 mm 4 mps 664 mmHg 37%
    16:00 +4°C° 0 mm 4 mps 664 mmHg 39%
    17:00 +3°C° 0 mm 3 mps 664 mmHg 40%
    18:00 +2°C° 0 mm 3 mps 665 mmHg 42%
    19:00 +2°C° 0 mm 3 mps 665 mmHg 43%
    20:00 +1°C° 0 mm 3 mps 665 mmHg 45%
    21:00 +1°C° 0 mm 3 mps 665 mmHg 46%
    22:00 0°C° 0 mm 3 mps 665 mmHg 46%
    23:00 0°C° 0 mm 3 mps 665 mmHg 46%

    19 January, Saturday

    Time Temperature Precipitation Wind Pressure Humidity
    00:00 0°C° 0 mm 3 mps 665 mmHg 46%
    01:00 -1°C° 0 mm 3 mps 665 mmHg 46%
    02:00 -1°C° 0 mm 3 mps 665 mmHg 45%
    03:00 -1°C° 0 mm 3 mps 665 mmHg 44%
    04:00 -1°C° 0 mm 3 mps 665 mmHg 44%
    05:00 -1°C° 0 mm 3 mps 665 mmHg 44%
    06:00 -1°C° 0 mm 3 mps 665 mmHg 43%
    07:00 -1°C° 0 mm 2 mps 665 mmHg 42%
    08:00 +1°C° 0 mm 2 mps 665 mmHg 41%
    09:00 +3°C° 0 mm 1 mps 665 mmHg 39%
    10:00 +2°C° 0 mm 2 mps 665 mmHg 38%
    11:00 +3°C° 0 mm 2 mps 665 mmHg 38%
    12:00 +3°C° 0 mm 2 mps 664 mmHg 37%
    13:00 +4°C° 0 mm 2 mps 664 mmHg 37%
    14:00 +4°C° 0 mm 2 mps 664 mmHg 37%
    15:00 +4°C° 0 mm 2 mps 664 mmHg 38%
    16:00 +4°C° 0 mm 2 mps 664 mmHg 40%
    17:00 +3°C° 0 mm 2 mps 664 mmHg 42%
    18:00 +3°C° 0 mm 2 mps 665 mmHg 44%
    19:00 +3°C° 0 mm 2 mps 665 mmHg 44%
    20:00 +4°C° 0 mm 1 mps 665 mmHg 44%
    21:00 +3°C° 0 mm 1 mps 665 mmHg 44%
    22:00 +3°C° 0 mm 1 mps 665 mmHg 44%
    23:00 +3°C° 0 mm 1 mps 665 mmHg 43%

    20 January, Sunday

    Time Temperature Precipitation Wind Pressure Humidity
    00:00 +3°C° 0 mm 1 mps 665 mmHg 42%
    01:00 +3°C° 0 mm 1 mps 665 mmHg 42%
    02:00 +2°C° 0 mm 1 mps 665 mmHg 41%
    03:00 +2°C° 0 mm 1 mps 666 mmHg 40%
    04:00 +2°C° 0 mm 1 mps 666 mmHg 39%
    05:00 +2°C° 0 mm 1 mps 666 mmHg 39%
    06:00 +2°C° 0 mm 1 mps 666 mmHg 38%
    07:00 +3°C° 0 mm 1 mps 666 mmHg 37%
    08:00 +3°C° 0 mm 1 mps 667 mmHg 36%
    09:00 +3°C° 0 mm 0 mps 667 mmHg 34%
    10:00 +4°C° 0 mm 1 mps 667 mmHg 35%
    11:00 +5°C° 0 mm 1 mps 666 mmHg 35%
    12:00 +5°C° 0 mm 1 mps 666 mmHg 36%
    13:00 +6°C° 0 mm 1 mps 666 mmHg 35%
    14:00 +6°C° 0 mm 1 mps 666 mmHg 35%
    15:00 +6°C° 0 mm 1 mps 666 mmHg 35%
    16:00 +6°C° 0 mm 1 mps 666 mmHg 37%
    17:00 +4°C° 0 mm 0 mps 666 mmHg 38%
    18:00 +3°C° 0 mm 0 mps 666 mmHg 40%
    19:00 +3°C° 0 mm 0 mps 666 mmHg 41%
    20:00 +3°C° 0 mm 0 mps 666 mmHg 41%
    21:00 +4°C° 0 mm 1 mps 666 mmHg 41%
    22:00 +3°C° 0 mm 1 mps 666 mmHg 41%
    23:00 +3°C° 0 mm 1 mps 666 mmHg 42%

    21 January, Monday

    Time Temperature Precipitation Wind Pressure Humidity
    00:00 +3°C° 0 mm 1 mps 666 mmHg 42%
    01:00 +2°C° 0 mm 1 mps 666 mmHg 41%
    02:00 +2°C° 0 mm 1 mps 666 mmHg 41%
    03:00 +2°C° 0 mm 1 mps 666 mmHg 40%
    04:00 +2°C° 0 mm 1 mps 666 mmHg 39%
    05:00 +2°C° 0 mm 1 mps 666 mmHg 39%
    06:00 +2°C° 0 mm 1 mps 666 mmHg 38%
    07:00 +2°C° 0 mm 1 mps 666 mmHg 36%
    08:00 +3°C° 0 mm 1 mps 667 mmHg 34%
    09:00 +3°C° 0 mm 0 mps 667 mmHg 33%
    10:00 +4°C° 0 mm 1 mps 666 mmHg 32%
    11:00 +4°C° 0 mm 1 mps 666 mmHg 32%
    12:00 +5°C° 0 mm 1 mps 665 mmHg 32%
    13:00 +5°C° 0 mm 1 mps 665 mmHg 32%
    14:00 +5°C° 0 mm 1 mps 665 mmHg 32%
    15:00 +6°C° 0 mm 1 mps 664 mmHg 32%
    16:00 +5°C° 0 mm 1 mps 664 mmHg 33%
    17:00 +3°C° 0 mm 0 mps 664 mmHg 35%
    18:00 +3°C° 0 mm 0 mps 664 mmHg 36%
    19:00 +3°C° 0 mm 0 mps 664 mmHg 36%
    20:00 +3°C° 0 mm 1 mps 664 mmHg 36%
    21:00 +3°C° 0 mm 1 mps 664 mmHg 36%
    22:00 +3°C° 0 mm 1 mps 664 mmHg 35%
    23:00 +3°C° 0 mm 1 mps 664 mmHg 34%
    Show more